Flag for Poland Weather past 2 weeks in Jastrzębie Zdrój, Poland

46 °F

Passing clouds.

Feels Like: 39 °F
Forecast: 39 / 48 °F
Wind: 18 mph from Southwest

Location: Ostrava / Mosnov

Current Time: Nov 30, 2015 at 7:39:17 AM

Latest Report: Nov 30, 2015 at 7:00 AM

Visibility: N/A

Pressure: 29.89 "Hg

Humidity: 76%

Dew point: 39 °F

Location of Jastrzębie ZdrójLocation

Historic Weather in Jastrzębie Zdrój — Graph


Jastrzębie Zdrój temperature yesterday

Maximum temperature yesterday: 43 °F (at 10:00 PM)
Minimum temperature yesterday: 34 °F (at 12:00 AM)
Average temperature yesterday: 38 °F

Past Weeks' High & Low Weather Summary

High59 °F (Nov 18, 8:00 AM)100% (Nov 16, 8:00 AM)30.30 "Hg (Nov 16, 8:00 AM)
Low23 °F (Nov 24, 11:30 PM)51% (Nov 18, 1:00 PM)29.39 "Hg (Nov 20, 11:30 PM)
Average41 °F82%29.87 "Hg
* Reported Nov 15 6:00 AM — Nov 30 6:00 AM, Jastrzębie Zdrój, Weather by CustomWeather, © 2015

Note: Actual official high and low records may vary slightly from our data, if they occured in-between our weather recording intervals... More about our weather records


Jastrzębie Zdrój weather history for previous 24 hours

Time TempWeatherWind HumidityBarometerVisibility
6:00 AM
Mon, Nov 30
48 °FMostly cloudy.18 mph71%29.83 "HgN/A
5:30 AM48 °FPassing clouds.22 mph71%29.80 "HgN/A
5:00 AM46 °FMostly cloudy.18 mph76%29.83 "HgN/A
4:30 AM46 °FOvercast.23 mph76%29.83 "HgN/A
4:00 AM46 °FOvercast.24 mph76%29.83 "HgN/A
3:30 AM46 °FPassing clouds.22 mph76%29.83 "HgN/A
3:00 AM46 °FPassing clouds.21 mph76%29.86 "HgN/A
2:00 AM45 °FMostly cloudy.20 mph76%29.86 "HgN/A
1:30 AM45 °FPassing clouds.25 mph76%29.86 "HgN/A
1:00 AM45 °FPassing clouds.24 mph76%29.86 "HgN/A
12:00 AM43 °FOvercast.20 mph81%29.89 "HgN/A
11:30 PM
Sun, Nov 29
43 °FPassing clouds.20 mph81%29.89 "HgN/A
11:00 PM43 °FPassing clouds.22 mph76%29.89 "HgN/A
10:30 PM43 °FPartly cloudy.21 mph76%29.92 "HgN/A
10:00 PM43 °FMostly cloudy.17 mph76%29.95 "HgN/A
9:30 PM41 °FPassing clouds.20 mph81%29.95 "HgN/A
9:00 PM41 °FOvercast.22 mph81%29.95 "HgN/A
8:30 PM39 °FPartly cloudy.17 mph87%29.95 "HgN/A
8:00 PM41 °FPassing clouds.15 mph81%29.95 "HgN/A
7:30 PM41 °FPartly cloudy.17 mph81%29.95 "HgN/A
7:00 PM41 °FPassing clouds.21 mph81%29.95 "HgN/A
6:30 PM41 °FPassing clouds.18 mph81%29.95 "HgN/A
6:00 PM41 °FPassing clouds.16 mph81%29.95 "HgN/A
5:30 PM39 °FPassing clouds.9 mph81%29.95 "HgN/A
5:00 PM39 °FPassing clouds.10 mph81%29.95 "HgN/A
4:30 PM39 °FPassing clouds.9 mph81%29.95 "HgN/A
4:00 PM41 °FPassing clouds.10 mph76%29.95 "HgN/A
3:30 PM41 °FPartly sunny.18 mph76%29.95 "HgN/A
3:00 PM39 °FBroken clouds.16 mph75%29.95 "HgN/A
2:30 PM39 °FPartly sunny.10 mph75%29.98 "HgN/A
2:00 PM39 °FPartly sunny.12 mph75%29.98 "HgN/A
1:30 PM39 °FPartly sunny.17 mph75%29.98 "HgN/A
1:00 PM39 °FPartly sunny.17 mph75%29.98 "HgN/A
12:30 PM39 °FScattered clouds.21 mph75%29.98 "HgN/A
12:00 PM39 °FScattered clouds.16 mph70%29.98 "HgN/A
11:30 AM39 °FPartly sunny.21 mph70%29.98 "HgN/A
11:00 AM39 °FPartly sunny.21 mph70%29.98 "HgN/A
10:30 AM37 °FScattered clouds.21 mph75%29.98 "HgN/A
10:00 AM37 °FSunny.16 mph75%30.01 "Hg10 mi
9:30 AM36 °FPassing clouds.15 mph81%30.01 "HgN/A
9:00 AM36 °FPassing clouds.14 mph75%30.01 "HgN/A
8:30 AM36 °FSunny.14 mph75%30.01 "Hg10 mi
8:00 AM34 °FSunny.10 mph81%30.04 "Hg10 mi
7:30 AM34 °FSunny.13 mph81%30.04 "Hg10 mi
7:00 AM34 °FClear.12 mph81%30.04 "Hg10 mi
Weather by CustomWeather, © 2015

See weather overviewHow to use our weather pages